Location: Devargunta
(16.7631°N, 80.9077°E)
Time: 09:01:46
(UTC+00:00)

Cosmos 540 Rocket - Pass Details

Date: 16 May 2021
Orbit: 740 x 753 km, 74.1° (Epoch: 21 June)

Event Time Altitude Azimuth Distance (km) Brightness Sun altitude
Rises 14:05:17 0° 317° (NW) 3,172 8.1 -15.1°
Reaches altitude 10° 14:08:40 10° 294° (WNW) 2,249 7.3 -15.8°
Maximum altitude 14:11:23 15° 262° (W) 1,951 6.4 -16.4°
Drops below altitude 10° 14:14:07 10° 229° (SW) 2,251 6.2 -17.0°
Sets 14:17:31 0° 205° (SSW) 3,176 6.7 -17.7°
